Date String (YYYY-MM-DD hh:mm:ss) UTC,Instrument flags,Ambient pressure (hPa),Sample flow (lpm),Bypass flow (lpm),Sample temperature (°C),Ambient temperature (°C),ASC tube jacket temperature (°C),LED temperature (°C),Box temperature (°C),Sample RH (%),Span deviation,Mass concentration (μg/m³),Mass concentration (μg/m³),Mass concentration (μg/m³)
DateTimeUTC,F1_M11,P_M11,Q1_M11,Q2_M11,T1_M11,T2_M11,T3_M11,T4_M11,T5_M11,U1_M11,ZSPAN_M11,X0_M11,X2_M11,X1_M11
2022-01-31 07:00:00,,0822.4,5.00,0.00,24.4,23.6,00.0,33.5,26.2,05.4,0000.0,0008.38,0005.62,0005.38
2022-01-31 07:01:00,,0822.4,4.99,0.00,24.4,23.6,00.0,33.5,26.2,05.5,0000.0,0008.36,0005.55,0005.29
2022-01-31 07:02:00,,0822.3,5.00,0.00,24.4,23.6,00.0,33.4,26.2,05.4,0000.0,0008.19,0005.48,0005.23
2022-01-31 07:03:00,,0822.3,5.01,0.00,24.4,23.6,00.0,33.4,26.2,05.5,0000.0,0008.27,0005.52,0005.26
2022-01-31 07:04:00,,0822.3,4.99,0.00,24.4,23.6,00.0,33.4,26.2,05.5,0000.0,0008.35,0005.58,0005.32
2022-01-31 07:05:00,,0822.3,5.00,0.00,24.4,23.6,00.0,33.4,26.2,05.6,0000.0,0009.11,0005.70,0005.41
2022-01-31 07:06:00,,0822.3,5.02,0.00,24.4,23.6,00.0,33.4,26.2,05.6,0000.0,0009.32,0005.80,0005.52
2022-01-31 07:07:00,,0822.3,4.98,0.00,24.4,23.6,00.0,33.4,26.2,05.6,0000.0,0009.49,0005.92,0005.63
2022-01-31 07:08:00,,0822.3,5.01,0.00,24.4,23.6,00.0,33.4,26.2,05.5,0000.0,0009.49,0005.95,0005.66
2022-01-31 07:09:00,,0822.3,4.99,0.00,24.4,23.6,00.0,33.4,26.1,05.5,0000.0,0009.54,0005.98,0005.69
2022-01-31 07:10:00,,0822.3,5.01,0.00,24.3,23.6,00.0,33.4,26.1,05.6,0002.5,0009.75,0006.08,0005.76
2022-01-31 07:11:00,,0822.3,4.99,0.00,24.3,23.6,00.0,33.4,26.1,05.6,0004.2,0010.13,0006.16,0005.84
2022-01-31 07:12:00,,0822.2,4.99,0.00,24.3,23.6,00.0,33.4,26.1,05.6,0002.6,0010.10,0006.18,0005.89
2022-01-31 07:13:00,,0822.2,5.00,0.00,24.3,23.5,00.0,33.3,26.1,05.6,0004.1,0010.29,0006.31,0005.99
2022-01-31 07:14:00,,0822.1,4.99,0.00,24.3,23.5,00.0,33.3,26.1,05.6,0003.4,0010.45,0006.43,0006.11
2022-01-31 07:15:00,,0822.1,5.00,0.00,24.3,23.5,00.0,33.3,26.1,05.5,0003.7,0010.60,0006.54,0006.20
2022-01-31 07:16:00,,0822.1,5.00,0.00,24.3,23.5,00.0,33.3,26.1,05.5,0003.4,0010.10,0006.60,0006.27
2022-01-31 07:17:00,,0822.1,5.00,0.00,24.3,23.5,00.0,33.3,26.1,05.4,0004.4,0010.12,0006.68,0006.34
2022-01-31 07:18:00,,0822.1,5.00,0.00,24.3,23.5,00.0,33.3,26.1,05.4,0004.4,0010.73,0006.71,0006.40
2022-01-31 07:19:00,,0822.1,4.98,0.00,24.3,23.5,00.0,33.3,26.0,05.6,0004.4,0011.06,0006.77,0006.47
2022-01-31 07:20:00,,0822.1,5.00,0.00,24.3,23.5,00.0,33.3,26.0,05.5,0004.4,0011.17,0006.89,0006.59
2022-01-31 07:21:00,,0822.0,5.00,0.00,24.2,23.5,00.0,33.3,26.0,05.4,0003.6,0011.19,0006.97,0006.68
2022-01-31 07:22:00,,0821.9,4.99,0.00,24.2,23.5,00.0,33.3,26.0,05.4,0002.4,0011.00,0007.02,0006.74
2022-01-31 07:23:00,,0822.0,5.02,0.00,24.3,23.5,00.0,33.3,26.0,05.5,0001.7,0011.01,0007.09,0006.81
2022-01-31 07:24:00,,0822.0,4.99,0.00,24.2,23.5,00.0,33.3,26.0,05.6,0001.5,0011.04,0007.11,0006.85
2022-01-31 07:25:00,,0821.9,5.02,0.00,24.2,23.5,00.0,33.3,26.0,05.4,0002.9,0011.10,0007.14,0006.88
2022-01-31 07:26:00,,0821.9,4.99,0.00,24.2,23.4,00.0,33.3,26.0,05.4,0003.0,0011.18,0007.15,0006.89
2022-01-31 07:27:00,,0822.2,5.00,0.00,24.2,23.4,00.0,33.2,26.0,05.4,0003.0,0011.13,0007.12,0006.87
2022-01-31 07:28:00,,0822.0,5.01,0.00,24.2,23.4,00.0,33.2,26.0,05.4,0002.7,0011.03,0007.08,0006.85
2022-01-31 07:29:00,,0821.7,5.00,0.00,24.2,23.4,00.0,33.2,26.0,05.4,0002.5,0010.74,0007.06,0006.83
2022-01-31 07:30:00,,0821.8,4.98,0.00,24.2,23.4,00.0,33.2,26.0,05.5,0000.0,0010.12,0007.12,0006.87
2022-01-31 07:31:00,,0821.8,5.02,0.00,24.2,23.4,00.0,33.2,25.9,05.6,0001.6,0010.16,0007.16,0006.90
2022-01-31 07:32:00,,0821.8,4.99,0.00,24.2,23.4,00.0,33.2,25.9,05.5,0003.0,0010.53,0007.16,0006.91
2022-01-31 07:33:00,,0821.8,5.01,0.00,24.1,23.4,00.0,33.2,25.9,05.5,0001.7,0010.82,0007.16,0006.90
2022-01-31 07:34:00,,0821.8,5.00,0.00,24.1,23.3,00.0,33.2,25.9,05.5,0002.9,0010.81,0007.15,0006.89
2022-01-31 07:35:00,,0821.8,4.99,0.00,24.1,23.3,00.0,33.2,25.8,05.6,0004.9,0011.23,0007.17,0006.89
2022-01-31 07:36:00,,0821.8,5.01,0.00,24.1,23.3,00.0,33.2,25.9,05.5,0004.8,0011.20,0007.18,0006.91
2022-01-31 07:37:00,,0821.8,5.00,0.00,24.1,23.3,00.0,33.1,25.8,05.5,0004.5,0011.03,0007.15,0006.91
2022-01-31 07:38:00,,0821.7,4.99,0.00,24.0,23.3,00.0,33.1,25.7,05.5,0005.5,0011.04,0007.14,0006.90
2022-01-31 07:39:00,,0821.6,5.01,0.00,24.0,23.3,00.0,33.1,25.7,05.5,0005.8,0011.43,0007.14,0006.89
2022-01-31 07:40:00,,0821.6,5.00,0.00,24.0,23.3,00.0,33.1,25.7,05.5,0004.7,0011.45,0007.12,0006.86
2022-01-31 07:41:00,,0821.7,5.00,0.00,24.0,23.2,00.0,33.1,25.7,05.4,0004.8,0011.49,0007.08,0006.81
2022-01-31 07:42:00,,0821.7,5.00,0.00,24.0,23.2,00.0,33.1,25.7,05.4,0005.2,0011.59,0007.05,0006.77
2022-01-31 07:43:00,,0821.7,4.99,0.00,24.0,23.2,00.0,33.1,25.7,05.2,0004.7,0011.41,0007.01,0006.73
2022-01-31 07:44:00,,0821.7,5.01,0.00,24.0,23.2,00.0,33.1,25.7,05.1,0003.4,0010.74,0006.91,0006.64
2022-01-31 07:45:00,,0821.7,4.98,0.00,24.0,23.2,00.0,33.1,25.7,05.4,0002.4,0010.79,0006.85,0006.59
2022-01-31 07:46:00,,0821.7,5.01,0.00,24.0,23.2,00.0,33.0,25.6,05.5,0002.5,0010.49,0006.80,0006.54
2022-01-31 07:47:00,,0821.7,4.99,0.00,24.0,23.2,00.0,33.0,25.6,05.5,0000.9,0010.24,0006.74,0006.49
2022-01-31 07:48:00,,0821.7,5.01,0.00,24.0,23.2,00.0,33.0,25.6,05.5,0000.6,0010.35,0006.67,0006.43
2022-01-31 07:49:00,,0821.6,5.00,0.00,23.9,23.1,00.0,33.0,25.6,05.4,0001.0,0010.48,0006.61,0006.36
2022-01-31 07:50:00,,0821.6,5.01,0.00,23.9,23.1,00.0,33.0,25.7,05.3,0001.7,0010.15,0006.54,0006.28
2022-01-31 07:51:00,,0821.6,5.01,0.00,23.9,23.1,00.0,33.0,25.6,05.3,0002.2,0010.12,0006.49,0006.22
2022-01-31 07:52:00,,0821.5,5.01,0.00,23.9,23.1,00.0,33.0,25.7,05.2,0003.9,0010.22,0006.45,0006.17
2022-01-31 07:53:00,,0821.5,5.00,0.00,23.9,23.1,00.0,33.0,25.6,05.4,0003.7,0010.06,0006.42,0006.15
2022-01-31 07:54:00,,0821.4,5.01,0.00,23.9,23.1,00.0,33.0,25.6,05.3,0004.1,0009.99,0006.39,0006.13
2022-01-31 07:55:00,,0821.4,5.01,0.00,23.9,23.1,00.0,32.9,25.6,05.3,0004.7,0009.98,0006.38,0006.13
2022-01-31 07:56:00,,0821.4,4.99,0.00,23.9,23.1,00.0,32.9,25.6,05.3,0005.3,0009.84,0006.35,0006.09
2022-01-31 07:57:00,,0821.4,5.02,0.00,23.9,23.1,00.0,32.9,25.6,05.3,0005.1,0009.97,0006.34,0006.05
2022-01-31 07:58:00,,0821.4,4.99,0.00,23.9,23.1,00.0,32.9,25.5,05.3,0005.2,0009.99,0006.29,0006.01
2022-01-31 07:59:00,,0821.5,5.00,0.00,23.9,23.1,00.0,32.9,25.5,05.4,0003.6,0009.80,0006.28,0005.99
